OTB-3-GAZELLE

Last updated on Wed Oct 22 2025 00:02:42 GMT+0000 (Coordinated Universal Time)

1 54023U 22127A 25294.60635890 .00000291 00000+0 10048-3 0 9994 2 54023 98.3793 285.1972 0012982 183.2811 176.8296 14.42575101159964
UTC large
Height (km)
Speed (km/s)
/
Latitude / Longitude
Inclination (degrees)
Orbital Period (minutes)
Azimuth
Elevation
Range (km)
Doppler Factor

Next 0 passes for location: London (51.5072 / 0.1276)

Sorry there are no passes over London.